Tracking 30743 objects as of 22-Jun-2025
HD Live streaming from Space Station
objects crossing your sky now

FENGYUN 2D

Track FENGYUN 2D now!
FENGYUN 2D is classified as:


NORAD ID: 29640
Int'l Code: 2006-053A
Perigee: 36,346.7 km
Apogee: 36,428.0 km
Inclination: 10.3 °
Period: 1,466.5 minutes
Semi major axis: 42758 km
RCS: 2.4572 m2 (large)
Launch date: December 8, 2006
Source: People's Republic of China (PRC)
Launch site: Xichang Space Center, China (XSC)

Fengyun 2D is a Chinese made weather satellite. It is 5th satellite of the Fengyun 2 series. The satellite was launched atop Long March 3A rocket at Xichang Satellite Launch Center at 2006-12-08 08:53 CST. It entered an orbit of 202x36525 km at 09:17 CST. It will be positioned at 80.595 E above equator.
Your satellite tracking list
Your tracking list is empty




NASA's NSSDC Master Catalog

Two Line Element Set (TLE):
1 29640U 06053A   25173.46913252 -.00000012  00000-0  00000-0 0  9999
2 29640  10.2836  43.7409 0009508  32.6428 251.8188  0.98191099 67469
Source of the keplerian elements: AFSPC